Showing default

COSMOS 1559, 14998

Orbit data source: Space-Track

COSMOS 1559, 14998 is a payload satellite owned by GUKOS (CIS) in LEO that was launched on Mon, 28 May 1984 UTC via a KOSMOS 11K65M launch vehicle from the Plesetsk Missile And Space Complex (PKMTR). Payload-class satellites include a variety of spacecraft equipped with specific instruments for various scientific and technological missions. These include communications satellites like Starlink; space stations such as the ISS; scientific satellites like the Hubble; Earth observation satellites from companies like Planet Labs, Umbra, and HawkEye 360; GPS; miniature CubeSats for education and research; and military/defense satellites.

Loading next visibility...
Identifier
14998, 1984-052A
Orbit
LEO
Country
Flag of CISCIS
Related business
Manufacturer
NPO PM
Mission
Spacecraft
Bus & Motor
STRELA-1 11F625, Unknown motor
Mass
60 kg wet, 60 kg dry
Launch date (UTC)
1984-05-28 (42 years ago)
Launch vehicle
KOSMOS 11K65M
Launch site
Plesetsk Missile And Space Complex (PKMTR)
Object type
Payload
Rocket body
Debris
Shape & HBR
Unknown
Radar Cross Section
Medium (>0.1 m² and <1 m²)

Expand to show TLE details & history
Last TLE update: 9 hours ago

TLE from 9 hours ago
0 COSMOS 1559
1 14998U 84052A   26036.99021507 -.00000008  00000-0  56896-4 0  9997
2 14998  74.0156 355.7773 0026087 314.1671 121.5169 12.43978041893227
Epoch: 2026-02-05T23:45Z
TLE epoch observation values (Epoch: 2026-02-05T23:45:54.582Z)
Latitude
68.91636°
Longitude
-89.15792°
Altitude
1,512.123 km
Speed
7.11 km/s
True Right ascension
02h 53m 48s
True Declination
68° 48' 42"
Sunlit
Object was in daylight at epoch
Visualization orbit readout
Latitude
Unknown
Longitude
Unknown
Altitude
Unknown
Speed
Unknown
Apparent Right ascension
Unknown
Apparent Declination
Unknown
Sunlit
N/A
Visualization observer readout
Local Sidereal Time
11:07:17
Azimuth
Unknown
Elevation
Unknown
Doppler factor
Unknown
Orbital elements
Apogee altitude
1,508.147 km
Perigee altitude
1,467.108 km
Semi-major axis
7,865.765 km
Eccentricity
0.00261
Inclination
74.0156°
RAAN
355.7773°
Arg. of periapsis
314.1671°
True anomaly
121.7713°
Mean anomaly
121.5169°
Eccentric anomaly
121.64415°
Mean motion
3.11123 °/min
Orbital period
115.71 mins
BSTAR
0.000056896
Loading maneuver chart data...
Computing Atmospheric mass density...
Loading historical data...
Loading historical data...
Loading historical data...
Loading historical data...
Loading historical data...
Loading historical data...
Loading historical data...

Documentation

Showing up to 5 results
|